FENGYUN 1C DEB, 36226

Orbit data source: Space-Track

FENGYUN 1C DEB, 36226 is space debris in SSO originally from a launch on Mon, 10 May 1999 UTC launched from the Taiyaun Space Center, China (TSC). Fengyun 1C debris stems from the Chinese weather satellite Fengyun-1C, which was intentionally destroyed by a Chinese anti-satellite missile in 2007. This event dramatically increased the amount of space debris, with thousands of trackable fragments posing hazards to satellites and human spaceflight. The Fengyun 1C debris cloud has become a focal point in discussions about space sustainability and the need for international regulations to prevent the creation of new debris.

Loading next visibility...
Identifier
36226, 1999-025DVB
Orbit
SSO
Country
Flag of CNCN / PRC
Related business
Manufacturer
Unknown
Mission
Spacecraft
Bus & Motor
Unknown
Mass
Unknown
Launch date (UTC)
1999-05-10 (27 years ago)
Launch vehicle
Unknown
Launch site
Taiyaun Space Center, China (TSC)
Object type
Payload
Rocket body
Debris
Shape & HBR
Unknown shape, 0.1 m
Radar Cross Section
Small (<0.1 m²)

Expand to show TLE details & history
Last TLE update: 15 hours ago

TLE from 15 hours ago
0 FENGYUN 1C DEB
1 36226U 99025DVB 26166.33957723  .00001762  00000-0  95935-3 0  9994
2 36226  98.5928 206.0106 0094790 213.3388 146.1792 14.11180274663659
Epoch: 2026-06-15T08:08Z
TLE epoch observation values (Epoch: 2026-06-15T08:08:59.472Z)
Latitude
-0.00002°
Longitude
-179.86458°
Altitude
915.415 km
Speed
7.365 km/s
True Right ascension
13h 44m 02s
True Declination
0° 00' 00"
Sunlit
Object was in full shadow at epoch
Visualization orbit readout
Latitude
Unknown
Longitude
Unknown
Altitude
Unknown
Speed
Unknown
Apparent Right ascension
Unknown
Apparent Declination
Unknown
Sunlit
N/A
Visualization observer readout
Local Sidereal Time
09:20:16
Azimuth
Unknown
Elevation
Unknown
Doppler factor
Unknown
Orbital elements
Apogee altitude
921.039 km
Perigee altitude
783.961 km
Semi-major axis
7,230.637 km
Eccentricity
0.00948
Inclination
98.5928°
RAAN
206.0106°
Arg. of periapsis
213.3388°
True anomaly
146.77788°
Mean anomaly
146.1792°
Eccentric anomaly
146.47913°
Mean motion
3.53003 °/min
Orbital period
101.98 mins
BSTAR
0.00095935
Loading maneuver chart data...
Computing Atmospheric mass density...

Documentation

Showing up to 5 results
|